Time,TemperatureF,DewpointF,PressureIn,WindDirection,WindDirectionDegrees,WindSpeedMPH,WindSpeedGustMPH,Humidity,HourlyPrecipIn,Conditions,Clouds,dailyrainin,SolarRadiationWatts/m^2,SoftwareType,DateUTC
2013-07-16 00:01:00,78.9,71.5,30.14,WNW,289,0.0,0.0,78,0.00,,,0.00,0,Wunderground v.1.15,2013-07-16 04:01:00,
2013-07-16 00:04:00,78.8,72.1,30.14,WNW,289,0.0,0.0,80,0.00,,,0.00,0,Wunderground v.1.15,2013-07-16 04:04:00,
2013-07-16 00:05:00,78.8,72.1,30.14,WNW,289,0.0,0.0,80,0.00,,,0.00,0,Wunderground v.1.15,2013-07-16 04:05:00,
2013-07-16 00:06:00,78.7,72.0,30.14,WNW,289,0.0,0.0,80,0.00,,,0.00,0,Wunderground v.1.15,2013-07-16 04:06:00,
2013-07-16 00:08:00,78.6,71.9,30.14,WNW,289,0.0,0.0,80,0.00,,,0.00,0,Wunderground v.1.15,2013-07-16 04:08:00,
2013-07-16 00:13:00,78.4,71.7,30.14,WNW,289,0.0,0.0,80,0.00,,,0.00,0,Wunderground v.1.15,2013-07-16 04:13:00,
2013-07-16 00:19:00,78.2,71.5,30.14,WNW,289,0.0,0.0,80,0.00,,,0.00,0,Wunderground v.1.15,2013-07-16 04:19:00,
2013-07-16 00:25:00,77.9,71.6,30.14,WNW,289,0.0,0.0,81,0.00,,,0.00,0,Wunderground v.1.15,2013-07-16 04:25:00,
2013-07-16 00:30:00,77.8,71.5,30.14,WNW,289,0.0,0.0,81,0.00,,,0.00,0,Wunderground v.1.15,2013-07-16 04:30:00,
2013-07-16 00:36:00,77.6,71.7,30.14,WNW,289,0.0,0.0,82,0.00,,,0.00,0,Wunderground v.1.15,2013-07-16 04:36:00,
2013-07-16 00:42:00,77.5,71.6,30.14,WNW,289,0.0,0.0,82,0.00,,,0.00,0,Wunderground v.1.15,2013-07-16 04:42:00,
2013-07-16 00:47:00,77.4,71.5,30.14,WNW,289,0.0,2.0,82,0.00,,,0.00,0,Wunderground v.1.15,2013-07-16 04:47:00,
2013-07-16 00:54:00,77.5,71.6,30.14,WNW,289,0.0,0.0,82,0.00,,,0.00,0,Wunderground v.1.15,2013-07-16 04:54:00,
2013-07-16 00:59:00,77.7,71.8,30.14,WNW,289,0.0,0.0,82,0.00,,,0.00,0,Wunderground v.1.15,2013-07-16 04:59:00,
2013-07-16 01:04:00,77.6,71.7,30.14,WNW,289,0.0,0.0,82,0.00,,,0.00,0,Wunderground v.1.15,2013-07-16 05:04:00,
2013-07-16 01:10:00,77.6,71.7,30.14,WNW,289,0.0,0.0,82,0.00,,,0.00,0,Wunderground v.1.15,2013-07-16 05:10:00,
2013-07-16 01:15:00,77.5,71.6,30.14,WNW,289,0.0,0.0,82,0.00,,,0.00,0,Wunderground v.1.15,2013-07-16 05:15:00,
2013-07-16 01:20:00,77.4,71.5,30.14,WNW,290,0.0,0.0,82,0.00,,,0.00,0,Wunderground v.1.15,2013-07-16 05:20:00,
2013-07-16 01:25:00,77.5,71.2,30.14,WNW,289,0.0,0.0,81,0.00,,,0.00,0,Wunderground v.1.15,2013-07-16 05:25:00,
2013-07-16 01:31:00,77.4,71.5,30.14,WNW,289,0.0,0.0,82,0.00,,,0.00,0,Wunderground v.1.15,2013-07-16 05:31:00,
2013-07-16 01:36:00,77.5,71.6,30.13,WNW,289,0.0,0.0,82,0.00,,,0.00,0,Wunderground v.1.15,2013-07-16 05:36:00,
2013-07-16 01:42:00,77.6,71.3,30.13,WNW,289,0.0,0.0,81,0.00,,,0.00,0,Wunderground v.1.15,2013-07-16 05:42:00,
2013-07-16 01:47:00,77.6,71.3,30.13,WNW,289,0.0,0.0,81,0.00,,,0.00,0,Wunderground v.1.15,2013-07-16 05:47:00,
2013-07-16 01:52:00,77.6,71.3,30.13,WNW,289,0.0,0.0,81,0.00,,,0.00,0,Wunderground v.1.15,2013-07-16 05:52:00,
2013-07-16 01:57:00,77.5,71.2,30.13,WNW,289,0.0,0.0,81,0.00,,,0.00,0,Wunderground v.1.15,2013-07-16 05:57:00,
2013-07-16 02:02:00,77.6,71.3,30.13,WNW,289,0.0,0.0,81,0.00,,,0.00,0,Wunderground v.1.15,2013-07-16 06:02:00,
2013-07-16 02:07:00,77.5,71.2,30.13,WNW,289,0.0,0.0,81,0.00,,,0.00,0,Wunderground v.1.15,2013-07-16 06:07:00,
2013-07-16 02:12:00,77.4,70.7,30.13,WNW,289,0.0,0.0,80,0.00,,,0.00,0,Wunderground v.1.15,2013-07-16 06:12:00,
2013-07-16 02:17:00,77.3,71.0,30.13,WNW,289,0.0,0.0,81,0.00,,,0.00,0,Wunderground v.1.15,2013-07-16 06:17:00,
2013-07-16 02:22:00,77.2,70.9,30.13,WNW,289,0.0,0.0,81,0.00,,,0.00,0,Wunderground v.1.15,2013-07-16 06:22:00,
2013-07-16 02:27:00,77.2,70.9,30.13,WNW,289,0.0,0.0,81,0.00,,,0.00,0,Wunderground v.1.15,2013-07-16 06:27:00,
2013-07-16 02:32:00,77.1,70.8,30.13,WNW,289,0.0,0.0,81,0.00,,,0.00,0,Wunderground v.1.15,2013-07-16 06:32:00,
2013-07-16 02:37:00,77.0,70.4,30.13,WNW,289,0.0,0.0,80,0.00,,,0.00,0,Wunderground v.1.15,2013-07-16 06:37:00,
2013-07-16 02:42:00,76.9,70.3,30.13,WNW,289,0.0,0.0,80,0.00,,,0.00,0,Wunderground v.1.15,2013-07-16 06:42:00,
2013-07-16 02:47:00,76.9,70.3,30.13,WNW,289,0.0,0.0,80,0.00,,,0.00,0,Wunderground v.1.15,2013-07-16 06:47:00,
2013-07-16 02:52:00,76.7,70.1,30.13,WNW,289,0.0,0.0,80,0.00,,,0.00,0,Wunderground v.1.15,2013-07-16 06:52:00,
2013-07-16 02:57:00,76.6,70.0,30.13,WNW,289,0.0,0.0,80,0.00,,,0.00,0,Wunderground v.1.15,2013-07-16 06:57:00,
2013-07-16 03:02:00,76.5,69.9,30.13,WNW,289,0.0,0.0,80,0.00,,,0.00,0,Wunderground v.1.15,2013-07-16 07:02:00,
2013-07-16 03:07:00,76.5,69.9,30.13,WNW,289,0.0,0.0,80,0.00,,,0.00,0,Wunderground v.1.15,2013-07-16 07:07:00,
2013-07-16 03:12:00,76.3,69.7,30.13,WNW,289,0.0,0.0,80,0.00,,,0.00,0,Wunderground v.1.15,2013-07-16 07:12:00,
2013-07-16 03:17:00,76.3,69.3,30.13,WNW,289,0.0,0.0,79,0.00,,,0.00,0,Wunderground v.1.15,2013-07-16 07:17:00,
2013-07-16 03:22:00,76.2,69.6,30.13,WNW,289,0.0,0.0,80,0.00,,,0.00,0,Wunderground v.1.15,2013-07-16 07:22:00,
2013-07-16 03:27:00,76.1,69.1,30.13,WNW,289,0.0,0.0,79,0.00,,,0.00,0,Wunderground v.1.15,2013-07-16 07:27:00,
2013-07-16 03:32:00,76.0,69.0,30.13,WNW,289,0.0,0.0,79,0.00,,,0.00,0,Wunderground v.1.15,2013-07-16 07:32:00,
2013-07-16 03:37:00,75.9,69.3,30.13,WNW,289,0.0,0.0,80,0.00,,,0.00,0,Wunderground v.1.15,2013-07-16 07:37:00,
2013-07-16 03:42:00,75.9,69.3,30.13,WNW,289,0.0,0.0,80,0.00,,,0.00,0,Wunderground v.1.15,2013-07-16 07:42:00,
2013-07-16 03:47:00,75.8,69.6,30.13,WNW,289,0.0,0.0,81,0.00,,,0.00,0,Wunderground v.1.15,2013-07-16 07:47:00,
2013-07-16 03:52:00,75.8,69.6,30.13,WNW,289,0.0,0.0,81,0.00,,,0.00,0,Wunderground v.1.15,2013-07-16 07:52:00,
2013-07-16 03:58:00,75.7,69.5,30.13,WNW,289,0.0,0.0,81,0.00,,,0.00,0,Wunderground v.1.15,2013-07-16 07:58:00,
2013-07-16 04:02:00,75.7,69.8,30.13,WNW,289,0.0,0.0,82,0.00,,,0.00,0,Wunderground v.1.15,2013-07-16 08:02:00,
2013-07-16 04:07:00,75.7,69.8,30.13,WNW,289,0.0,1.0,82,0.00,,,0.00,0,Wunderground v.1.15,2013-07-16 08:07:00,
2013-07-16 04:13:00,75.7,69.8,30.13,WNW,289,0.0,0.0,82,0.00,,,0.00,0,Wunderground v.1.15,2013-07-16 08:13:00,
2013-07-16 04:18:00,75.7,70.2,30.13,WNW,289,0.0,1.0,83,0.00,,,0.00,0,Wunderground v.1.15,2013-07-16 08:18:00,
2013-07-16 04:23:00,75.6,70.1,30.13,WNW,289,0.0,0.0,83,0.00,,,0.00,0,Wunderground v.1.15,2013-07-16 08:23:00,
2013-07-16 04:28:00,75.4,69.9,30.14,WNW,289,0.0,0.0,83,0.00,,,0.00,0,Wunderground v.1.15,2013-07-16 08:28:00,
2013-07-16 04:33:00,75.4,69.9,30.13,WNW,289,0.0,0.0,83,0.00,,,0.00,0,Wunderground v.1.15,2013-07-16 08:33:00,
2013-07-16 04:38:00,75.2,69.7,30.13,WNW,289,1.0,2.0,83,0.00,,,0.00,0,Wunderground v.1.15,2013-07-16 08:38:00,
2013-07-16 04:43:00,75.3,70.1,30.13,WNW,289,0.0,0.0,84,0.00,,,0.00,0,Wunderground v.1.15,2013-07-16 08:43:00,
2013-07-16 04:48:00,75.1,69.9,30.13,WNW,289,0.0,0.0,84,0.00,,,0.00,0,Wunderground v.1.15,2013-07-16 08:48:00,
2013-07-16 04:53:00,75.0,69.8,30.13,WNW,289,0.0,1.0,84,0.00,,,0.00,0,Wunderground v.1.15,2013-07-16 08:53:00,
2013-07-16 04:58:00,75.0,69.8,30.13,WNW,289,0.0,1.0,84,0.00,,,0.00,0,Wunderground v.1.15,2013-07-16 08:58:00,
2013-07-16 05:03:00,75.0,69.8,30.13,WNW,289,0.0,0.0,84,0.00,,,0.00,0,Wunderground v.1.15,2013-07-16 09:03:00,
2013-07-16 05:08:00,74.9,69.7,30.13,WNW,289,4.0,4.0,84,0.00,,,0.00,0,Wunderground v.1.15,2013-07-16 09:08:00,
2013-07-16 05:14:00,75.0,69.8,30.14,WNW,289,0.0,2.0,84,0.00,,,0.00,0,Wunderground v.1.15,2013-07-16 09:14:00,
2013-07-16 05:19:00,75.1,69.9,30.14,WNW,289,0.0,2.0,84,0.00,,,0.00,0,Wunderground v.1.15,2013-07-16 09:19:00,
2013-07-16 05:24:00,75.0,69.8,30.14,WNW,289,0.0,0.0,84,0.00,,,0.00,0,Wunderground v.1.15,2013-07-16 09:24:00,
2013-07-16 05:29:00,74.9,69.7,30.14,WNW,289,0.0,0.0,84,0.00,,,0.00,0,Wunderground v.1.15,2013-07-16 09:29:00,
2013-07-16 05:34:00,74.8,69.6,30.14,WNW,289,0.0,0.0,84,0.00,,,0.00,0,Wunderground v.1.15,2013-07-16 09:34:00,
2013-07-16 05:39:00,74.7,69.5,30.14,WNW,289,0.0,1.0,84,0.00,,,0.00,0,Wunderground v.1.15,2013-07-16 09:39:00,
2013-07-16 05:44:00,74.7,69.5,30.15,WNW,289,0.0,1.0,84,0.00,,,0.00,0,Wunderground v.1.15,2013-07-16 09:44:00,
2013-07-16 05:49:00,74.6,69.4,30.15,WNW,289,1.0,3.0,84,0.00,,,0.00,0,Wunderground v.1.15,2013-07-16 09:49:00,
2013-07-16 05:54:00,74.7,69.5,30.15,WNW,289,1.0,2.0,84,0.00,,,0.00,0,Wunderground v.1.15,2013-07-16 09:54:00,
2013-07-16 05:59:00,74.7,69.2,30.15,WNW,289,0.0,2.0,83,0.00,,,0.00,0,Wunderground v.1.15,2013-07-16 09:59:00,
2013-07-16 06:04:00,74.9,69.4,30.15,WNW,289,0.0,2.0,83,0.00,,,0.00,0,Wunderground v.1.15,2013-07-16 10:04:00,
2013-07-16 06:09:00,74.8,69.3,30.16,WNW,289,0.0,2.0,83,0.00,,,0.00,0,Wunderground v.1.15,2013-07-16 10:09:00,
2013-07-16 06:14:00,75.0,69.5,30.15,WNW,289,0.0,1.0,83,0.00,,,0.00,0,Wunderground v.1.15,2013-07-16 10:14:00,
2013-07-16 06:19:00,75.0,69.5,30.15,WNW,289,0.0,3.0,83,0.00,,,0.00,0,Wunderground v.1.15,2013-07-16 10:19:00,
2013-07-16 06:24:00,75.1,69.6,30.16,WNW,289,0.0,3.0,83,0.00,,,0.00,0,Wunderground v.1.15,2013-07-16 10:24:00,
2013-07-16 06:29:00,75.2,69.3,30.16,WNW,289,0.0,3.0,82,0.00,,,0.00,0,Wunderground v.1.15,2013-07-16 10:29:00,
2013-07-16 06:34:00,75.4,69.5,30.16,NW,311,0.0,6.0,82,0.00,,,0.00,0,Wunderground v.1.15,2013-07-16 10:34:00,
2013-07-16 06:39:00,75.7,69.5,30.16,NW,311,0.0,6.0,81,0.00,,,0.00,0,Wunderground v.1.15,2013-07-16 10:39:00,
2013-07-16 06:44:00,75.9,69.3,30.16,NW,311,0.0,3.0,80,0.00,,,0.00,0,Wunderground v.1.15,2013-07-16 10:44:00,
2013-07-16 06:49:00,76.2,69.6,30.16,NW,317,3.0,7.0,80,0.00,,,0.00,0,Wunderground v.1.15,2013-07-16 10:49:00,
2013-07-16 06:54:00,76.5,69.5,30.16,NW,317,5.0,5.0,79,0.00,,,0.00,0,Wunderground v.1.15,2013-07-16 10:54:00,
2013-07-16 06:59:00,76.7,69.3,30.16,NW,317,2.0,5.0,78,0.00,,,0.00,0,Wunderground v.1.15,2013-07-16 10:59:00,
2013-07-16 07:04:00,76.9,69.1,30.16,NW,326,0.0,7.0,77,0.00,,,0.00,0,Wunderground v.1.15,2013-07-16 11:04:00,
2013-07-16 07:09:00,77.3,69.5,30.16,NW,326,0.0,7.0,77,0.00,,,0.00,0,Wunderground v.1.15,2013-07-16 11:09:00,
2013-07-16 07:14:00,77.6,69.4,30.16,NW,326,4.0,4.0,76,0.00,,,0.00,0,Wunderground v.1.15,2013-07-16 11:14:00,
2013-07-16 07:19:00,77.9,69.3,30.16,NW,326,1.0,6.0,75,0.00,,,0.00,0,Wunderground v.1.15,2013-07-16 11:19:00,
2013-07-16 07:24:00,78.2,69.2,30.16,NW,326,0.0,5.0,74,0.00,,,0.00,0,Wunderground v.1.15,2013-07-16 11:24:00,
2013-07-16 07:29:00,78.5,69.5,30.17,NW,326,1.0,5.0,74,0.00,,,0.00,0,Wunderground v.1.15,2013-07-16 11:29:00,
2013-07-16 07:34:00,78.7,69.3,30.17,NW,325,0.0,6.0,73,0.00,,,0.00,0,Wunderground v.1.15,2013-07-16 11:34:00,
2013-07-16 07:39:00,79.0,69.6,30.17,NNW,327,6.0,6.0,73,0.00,,,0.00,0,Wunderground v.1.15,2013-07-16 11:39:00,
2013-07-16 07:44:00,79.4,69.2,30.17,NW,322,0.0,7.0,71,0.00,,,0.00,0,Wunderground v.1.15,2013-07-16 11:44:00,
2013-07-16 07:49:00,79.8,68.7,30.17,North,352,2.0,8.0,69,0.00,,,0.00,0,Wunderground v.1.15,2013-07-16 11:49:00,
2013-07-16 07:54:00,80.1,68.6,30.17,NNW,343,1.0,9.0,68,0.00,,,0.00,0,Wunderground v.1.15,2013-07-16 11:54:00,
2013-07-16 07:59:00,80.4,68.9,30.17,North,0,1.0,9.0,68,0.00,,,0.00,0,Wunderground v.1.15,2013-07-16 11:59:00,
2013-07-16 08:04:00,80.7,68.7,30.17,NNW,332,1.0,9.0,67,0.00,,,0.00,0,Wunderground v.1.15,2013-07-16 12:04:00,
2013-07-16 08:09:00,80.9,68.5,30.17,NNW,341,4.0,9.0,66,0.00,,,0.00,0,Wunderground v.1.15,2013-07-16 12:09:00,
2013-07-16 08:14:00,81.1,68.7,30.17,NNW,343,2.0,7.0,66,0.00,,,0.00,0,Wunderground v.1.15,2013-07-16 12:14:00,
2013-07-16 08:19:00,81.3,68.4,30.17,NNW,346,7.0,7.0,65,0.00,,,0.00,0,Wunderground v.1.15,2013-07-16 12:19:00,
2013-07-16 08:25:00,81.4,68.5,30.17,NNW,330,6.0,8.0,65,0.00,,,0.00,0,Wunderground v.1.15,2013-07-16 12:25:00,
2013-07-16 08:30:00,81.6,68.7,30.17,NNW,329,3.0,3.0,65,0.00,,,0.00,0,Wunderground v.1.15,2013-07-16 12:30:00,
2013-07-16 08:35:00,81.8,68.4,30.17,North,355,1.0,7.0,64,0.00,,,0.00,0,Wunderground v.1.15,2013-07-16 12:35:00,
2013-07-16 08:40:00,82.3,68.9,30.17,North,358,0.0,0.0,64,0.00,,,0.00,0,Wunderground v.1.15,2013-07-16 12:40:00,
2013-07-16 08:45:00,82.6,68.7,30.17,NNW,345,2.0,5.0,63,0.00,,,0.00,0,Wunderground v.1.15,2013-07-16 12:45:00,
2013-07-16 08:50:00,82.7,68.8,30.17,NE,53,0.0,3.0,63,0.00,,,0.00,0,Wunderground v.1.15,2013-07-16 12:50:00,
2013-07-16 08:55:00,83.1,69.2,30.17,North,4,1.0,8.0,63,0.00,,,0.00,0,Wunderground v.1.15,2013-07-16 12:55:00,
2013-07-16 09:00:00,83.3,68.9,30.17,North,349,3.0,4.0,62,0.00,,,0.00,0,Wunderground v.1.15,2013-07-16 13:00:00,
2013-07-16 09:05:00,83.4,69.0,30.17,NNE,17,3.0,7.0,62,0.00,,,0.00,0,Wunderground v.1.15,2013-07-16 13:05:00,
2013-07-16 09:10:00,83.8,68.9,30.17,NNW,331,2.0,4.0,61,0.00,,,0.00,0,Wunderground v.1.15,2013-07-16 13:10:00,
2013-07-16 09:15:00,83.9,69.0,30.17,NW,324,5.0,5.0,61,0.00,,,0.00,0,Wunderground v.1.15,2013-07-16 13:15:00,
2013-07-16 09:20:00,83.9,68.5,30.17,NE,35,6.0,6.0,60,0.00,,,0.00,0,Wunderground v.1.15,2013-07-16 13:20:00,
2013-07-16 09:25:00,84.4,69.0,30.17,NNE,25,5.0,8.0,60,0.00,,,0.00,0,Wunderground v.1.15,2013-07-16 13:25:00,
2013-07-16 09:30:00,84.8,68.4,30.17,North,350,3.0,3.0,58,0.00,,,0.00,0,Wunderground v.1.15,2013-07-16 13:30:00,
2013-07-16 09:35:00,85.1,68.7,30.16,North,0,0.0,8.0,58,0.00,,,0.00,0,Wunderground v.1.15,2013-07-16 13:35:00,
2013-07-16 09:40:00,85.5,68.5,30.16,North,0,0.0,2.0,57,0.00,,,0.00,0,Wunderground v.1.15,2013-07-16 13:40:00,
2013-07-16 09:45:00,85.8,68.8,30.17,NNE,13,3.0,6.0,57,0.00,,,0.00,0,Wunderground v.1.15,2013-07-16 13:45:00,
2013-07-16 09:50:00,86.5,68.9,30.17,NNW,343,8.0,8.0,56,0.00,,,0.00,0,Wunderground v.1.15,2013-07-16 13:50:00,
2013-07-16 09:55:00,86.4,68.8,30.17,NNE,15,3.0,8.0,56,0.00,,,0.00,0,Wunderground v.1.15,2013-07-16 13:55:00,
2013-07-16 10:00:00,86.7,69.1,30.17,North,350,7.0,7.0,56,0.00,,,0.00,0,Wunderground v.1.15,2013-07-16 14:00:00,
2013-07-16 10:05:00,86.7,68.6,30.17,North,351,5.0,8.0,55,0.00,,,0.00,0,Wunderground v.1.15,2013-07-16 14:05:00,
2013-07-16 10:10:00,86.8,68.2,30.17,NE,49,3.0,4.0,54,0.00,,,0.00,0,Wunderground v.1.15,2013-07-16 14:10:00,
2013-07-16 10:15:00,87.0,68.3,30.17,NNE,28,4.0,7.0,54,0.00,,,0.00,0,Wunderground v.1.15,2013-07-16 14:15:00,
2013-07-16 10:20:00,87.1,69.0,30.17,NNW,343,1.0,5.0,55,0.00,,,0.00,0,Wunderground v.1.15,2013-07-16 14:20:00,
2013-07-16 10:25:00,87.1,68.4,30.17,NNW,340,4.0,9.0,54,0.00,,,0.00,0,Wunderground v.1.15,2013-07-16 14:25:00,
2013-07-16 10:30:00,87.6,68.9,30.17,NW,307,4.0,5.0,54,0.00,,,0.00,0,Wunderground v.1.15,2013-07-16 14:30:00,
2013-07-16 10:35:00,87.8,69.6,30.17,WNW,303,4.0,6.0,55,0.00,,,0.00,0,Wunderground v.1.15,2013-07-16 14:35:00,
2013-07-16 10:40:00,88.0,68.7,30.17,NNE,27,1.0,5.0,53,0.00,,,0.00,0,Wunderground v.1.15,2013-07-16 14:40:00,
2013-07-16 10:45:00,87.9,68.6,30.17,NW,306,4.0,9.0,53,0.00,,,0.00,0,Wunderground v.1.15,2013-07-16 14:45:00,
2013-07-16 10:50:00,88.2,68.9,30.17,WNW,298,6.0,8.0,53,0.00,,,0.00,0,Wunderground v.1.15,2013-07-16 14:50:00,
2013-07-16 10:55:00,88.2,68.9,30.17,North,358,2.0,8.0,53,0.00,,,0.00,0,Wunderground v.1.15,2013-07-16 14:55:00,
2013-07-16 11:00:00,88.3,67.9,30.17,NE,35,3.0,6.0,51,0.00,,,0.00,0,Wunderground v.1.15,2013-07-16 15:00:00,
2013-07-16 11:05:00,88.4,68.0,30.17,NE,39,5.0,9.0,51,0.00,,,0.00,0,Wunderground v.1.15,2013-07-16 15:05:00,
2013-07-16 11:10:00,88.9,69.0,30.17,NW,319,4.0,9.0,52,0.00,,,0.00,0,Wunderground v.1.15,2013-07-16 15:10:00,
2013-07-16 11:15:00,89.1,68.0,30.16,WNW,302,8.0,10.0,50,0.00,,,0.00,0,Wunderground v.1.15,2013-07-16 15:15:00,
2013-07-16 11:20:00,88.6,68.2,30.16,NNW,335,0.0,4.0,51,0.00,,,0.00,0,Wunderground v.1.15,2013-07-16 15:20:00,
2013-07-16 11:25:00,89.2,67.5,30.16,NNW,345,4.0,6.0,49,0.00,,,0.00,0,Wunderground v.1.15,2013-07-16 15:25:00,
2013-07-16 11:30:00,89.3,67.6,30.16,North,354,8.0,8.0,49,0.00,,,0.00,0,Wunderground v.1.15,2013-07-16 15:30:00,
2013-07-16 11:35:00,89.4,68.3,30.16,North,2,7.0,10.0,50,0.00,,,0.00,0,Wunderground v.1.15,2013-07-16 15:35:00,
2013-07-16 11:40:00,89.5,68.4,30.16,North,352,1.0,4.0,50,0.00,,,0.00,0,Wunderground v.1.15,2013-07-16 15:40:00,
2013-07-16 11:46:00,89.6,66.7,30.16,NE,36,3.0,6.0,47,0.00,,,0.00,0,Wunderground v.1.15,2013-07-16 15:46:00,
2013-07-16 11:50:00,90.0,67.1,30.16,NW,325,3.0,3.0,47,0.00,,,0.00,0,Wunderground v.1.15,2013-07-16 15:50:00,
2013-07-16 11:55:00,90.3,66.7,30.16,NW,326,1.0,9.0,46,0.00,,,0.00,0,Wunderground v.1.15,2013-07-16 15:55:00,
2013-07-16 12:01:00,90.7,67.1,30.16,NNW,331,1.0,6.0,46,0.00,,,0.00,0,Wunderground v.1.15,2013-07-16 16:01:00,
2013-07-16 12:06:00,91.2,66.9,30.16,NNE,15,3.0,6.0,45,0.00,,,0.00,0,Wunderground v.1.15,2013-07-16 16:06:00,
2013-07-16 12:11:00,91.5,66.5,30.16,North,359,4.0,8.0,44,0.00,,,0.00,0,Wunderground v.1.15,2013-07-16 16:11:00,
2013-07-16 12:16:00,91.8,66.1,30.16,North,0,4.0,8.0,43,0.00,,,0.00,0,Wunderground v.1.15,2013-07-16 16:16:00,
2013-07-16 12:21:00,92.3,65.9,30.16,NE,38,2.0,7.0,42,0.00,,,0.00,0,Wunderground v.1.15,2013-07-16 16:21:00,
2013-07-16 12:26:00,92.4,66.0,30.16,North,358,3.0,7.0,42,0.00,,,0.00,0,Wunderground v.1.15,2013-07-16 16:26:00,
2013-07-16 12:31:00,92.6,66.2,30.16,North,0,3.0,7.0,42,0.00,,,0.00,0,Wunderground v.1.15,2013-07-16 16:31:00,
2013-07-16 12:36:00,92.1,65.0,30.16,NW,315,6.0,9.0,41,0.00,,,0.00,0,Wunderground v.1.15,2013-07-16 16:36:00,
2013-07-16 12:41:00,91.6,63.9,30.16,NNE,14,8.0,8.0,40,0.00,,,0.00,0,Wunderground v.1.15,2013-07-16 16:41:00,
2013-07-16 12:46:00,92.0,64.2,30.16,SSE,152,3.0,11.0,40,0.00,,,0.00,0,Wunderground v.1.15,2013-07-16 16:46:00,
2013-07-16 12:51:00,92.1,64.3,30.16,North,3,1.0,9.0,40,0.00,,,0.00,0,Wunderground v.1.15,2013-07-16 16:51:00,
2013-07-16 12:56:00,92.6,65.5,30.16,North,349,0.0,9.0,41,0.00,,,0.00,0,Wunderground v.1.15,2013-07-16 16:56:00,
2013-07-16 13:01:00,92.3,65.2,30.16,NW,320,2.0,6.0,41,0.00,,,0.00,0,Wunderground v.1.15,2013-07-16 17:01:00,
2013-07-16 13:06:00,91.8,66.1,30.15,North,1,1.0,7.0,43,0.00,,,0.00,0,Wunderground v.1.15,2013-07-16 17:06:00,
2013-07-16 13:11:00,92.2,65.8,30.16,NNW,348,6.0,11.0,42,0.00,,,0.00,0,Wunderground v.1.15,2013-07-16 17:11:00,
2013-07-16 13:16:00,92.0,64.9,30.15,NNW,347,6.0,11.0,41,0.00,,,0.00,0,Wunderground v.1.15,2013-07-16 17:16:00,
2013-07-16 13:21:00,91.9,64.8,30.15,NNW,340,5.0,9.0,41,0.00,,,0.00,0,Wunderground v.1.15,2013-07-16 17:21:00,
2013-07-16 13:26:00,92.3,64.5,30.15,NE,41,6.0,9.0,40,0.00,,,0.00,0,Wunderground v.1.15,2013-07-16 17:26:00,
2013-07-16 13:31:00,93.3,65.4,30.15,NNW,329,4.0,7.0,40,0.00,,,0.00,0,Wunderground v.1.15,2013-07-16 17:31:00,
2013-07-16 13:36:00,93.7,66.4,30.14,NW,323,1.0,9.0,41,0.00,,,0.00,0,Wunderground v.1.15,2013-07-16 17:36:00,
2013-07-16 13:41:00,94.6,65.1,30.14,ENE,68,1.0,6.0,38,0.00,,,0.00,0,Wunderground v.1.15,2013-07-16 17:41:00,
2013-07-16 13:46:00,94.8,65.2,30.14,North,357,1.0,8.0,38,0.00,,,0.00,0,Wunderground v.1.15,2013-07-16 17:46:00,
2013-07-16 13:51:00,94.2,65.4,30.14,North,351,3.0,4.0,39,0.00,,,0.00,0,Wunderground v.1.15,2013-07-16 17:51:00,
2013-07-16 13:56:00,93.7,65.7,30.14,NNW,341,6.0,6.0,40,0.00,,,0.00,0,Wunderground v.1.15,2013-07-16 17:56:00,
2013-07-16 14:01:00,93.7,65.0,30.14,ENE,63,4.0,8.0,39,0.00,,,0.00,0,Wunderground v.1.15,2013-07-16 18:01:00,
2013-07-16 14:06:00,93.7,65.0,30.14,NE,53,7.0,8.0,39,0.00,,,0.00,0,Wunderground v.1.15,2013-07-16 18:06:00,
2013-07-16 14:11:00,93.4,65.5,30.14,NE,46,0.0,2.0,40,0.00,,,0.00,0,Wunderground v.1.15,2013-07-16 18:11:00,
2013-07-16 14:16:00,93.9,65.2,30.14,West,262,2.0,9.0,39,0.00,,,0.00,0,Wunderground v.1.15,2013-07-16 18:16:00,
2013-07-16 14:21:00,92.9,64.3,30.14,NW,315,0.0,3.0,39,0.00,,,0.00,0,Wunderground v.1.15,2013-07-16 18:21:00,
2013-07-16 14:26:00,92.8,65.6,30.14,NNE,15,5.0,10.0,41,0.00,,,0.00,0,Wunderground v.1.15,2013-07-16 18:26:00,
2013-07-16 14:31:00,93.3,65.4,30.14,NE,52,1.0,2.0,40,0.00,,,0.00,0,Wunderground v.1.15,2013-07-16 18:31:00,
2013-07-16 14:36:00,93.9,65.2,30.14,North,352,3.0,10.0,39,0.00,,,0.00,0,Wunderground v.1.15,2013-07-16 18:36:00,
2013-07-16 14:41:00,93.7,65.7,30.13,NE,42,1.0,4.0,40,0.00,,,0.00,0,Wunderground v.1.15,2013-07-16 18:41:00,
2013-07-16 14:46:00,93.8,65.8,30.14,NNW,334,1.0,7.0,40,0.00,,,0.00,0,Wunderground v.1.15,2013-07-16 18:46:00,
2013-07-16 14:51:00,93.1,65.2,30.14,NNW,332,0.0,7.0,40,0.00,,,0.00,0,Wunderground v.1.15,2013-07-16 18:51:00,
2013-07-16 14:56:00,92.4,64.6,30.14,North,0,0.0,7.0,40,0.00,,,0.00,0,Wunderground v.1.15,2013-07-16 18:56:00,
2013-07-16 15:01:00,93.2,63.8,30.13,North,0,6.0,6.0,38,0.00,,,0.00,0,Wunderground v.1.15,2013-07-16 19:01:00,
2013-07-16 15:06:00,94.3,64.8,30.13,NNW,347,0.0,10.0,38,0.00,,,0.00,0,Wunderground v.1.15,2013-07-16 19:06:00,
2013-07-16 15:11:00,94.4,64.9,30.13,NNE,28,2.0,6.0,38,0.00,,,0.00,0,Wunderground v.1.15,2013-07-16 19:11:00,
2013-07-16 15:16:00,94.3,65.5,30.13,North,9,1.0,6.0,39,0.00,,,0.00,0,Wunderground v.1.15,2013-07-16 19:16:00,
2013-07-16 15:21:00,94.2,64.7,30.13,ENE,61,3.0,4.0,38,0.00,,,0.00,0,Wunderground v.1.15,2013-07-16 19:21:00,
2013-07-16 15:26:00,94.2,64.7,30.13,North,351,1.0,7.0,38,0.00,,,0.00,0,Wunderground v.1.15,2013-07-16 19:26:00,
2013-07-16 15:31:00,94.2,64.7,30.13,NNE,30,5.0,8.0,38,0.00,,,0.00,0,Wunderground v.1.15,2013-07-16 19:31:00,
2013-07-16 15:36:00,94.5,65.0,30.12,NNE,17,5.0,8.0,38,0.00,,,0.00,0,Wunderground v.1.15,2013-07-16 19:36:00,
2013-07-16 15:41:00,94.0,65.3,30.13,NNE,32,7.0,10.0,39,0.00,,,0.00,0,Wunderground v.1.15,2013-07-16 19:41:00,
2013-07-16 15:46:00,94.0,65.3,30.13,NE,45,0.0,10.0,39,0.00,,,0.00,0,Wunderground v.1.15,2013-07-16 19:46:00,
2013-07-16 15:51:00,94.2,64.7,30.13,NNE,20,0.0,9.0,38,0.00,,,0.00,0,Wunderground v.1.15,2013-07-16 19:51:00,
2013-07-16 15:56:00,94.4,64.1,30.12,NE,54,0.0,9.0,37,0.00,,,0.00,0,Wunderground v.1.15,2013-07-16 19:56:00,
2013-07-16 16:01:00,94.9,64.6,30.13,NE,41,2.0,8.0,37,0.00,,,0.00,0,Wunderground v.1.15,2013-07-16 20:01:00,
2013-07-16 16:06:00,96.5,64.4,30.13,ESE,117,0.0,8.0,35,0.00,,,0.00,0,Wunderground v.1.15,2013-07-16 20:06:00,
2013-07-16 16:11:00,96.4,65.1,30.12,SE,140,4.0,8.0,36,0.00,,,0.00,0,Wunderground v.1.15,2013-07-16 20:11:00,
2013-07-16 16:16:00,96.1,64.8,30.13,SE,126,1.0,8.0,36,0.00,,,0.00,0,Wunderground v.1.15,2013-07-16 20:16:00,
2013-07-16 16:21:00,95.5,65.1,30.12,SE,126,1.0,4.0,37,0.00,,,0.00,0,Wunderground v.1.15,2013-07-16 20:21:00,
2013-07-16 16:22:00,95.6,65.2,30.12,SE,126,2.0,4.0,37,0.00,,,0.00,0,Wunderground v.1.15,2013-07-16 20:22:00,
2013-07-16 16:27:00,96.0,65.5,30.12,SE,125,0.0,4.0,37,0.00,,,0.00,0,Wunderground v.1.15,2013-07-16 20:27:00,
2013-07-16 16:32:00,96.8,65.4,30.12,SE,124,0.0,2.0,36,0.00,,,0.00,0,Wunderground v.1.15,2013-07-16 20:32:00,
2013-07-16 16:37:00,97.3,65.1,30.12,ESE,105,3.0,4.0,35,0.00,,,0.00,0,Wunderground v.1.15,2013-07-16 20:37:00,
2013-07-16 16:42:00,95.9,66.2,30.12,East,95,0.0,2.0,38,0.00,,,0.00,0,Wunderground v.1.15,2013-07-16 20:42:00,
2013-07-16 16:47:00,95.2,67.1,30.12,East,95,0.0,2.0,40,0.00,,,0.00,0,Wunderground v.1.15,2013-07-16 20:47:00,
2013-07-16 16:52:00,94.2,65.4,30.12,East,95,0.0,3.0,39,0.00,,,0.00,0,Wunderground v.1.15,2013-07-16 20:52:00,
2013-07-16 16:57:00,93.3,67.5,30.12,East,95,0.0,3.0,43,0.00,,,0.00,0,Wunderground v.1.15,2013-07-16 20:57:00,
2013-07-16 17:02:00,93.2,66.7,30.12,East,95,2.0,3.0,42,0.00,,,0.00,0,Wunderground v.1.15,2013-07-16 21:02:00,
2013-07-16 17:07:00,93.0,65.8,30.11,East,95,0.0,3.0,41,0.00,,,0.00,0,Wunderground v.1.15,2013-07-16 21:07:00,
2013-07-16 17:12:00,94.1,67.5,30.12,East,94,1.0,4.0,42,0.00,,,0.00,0,Wunderground v.1.15,2013-07-16 21:12:00,
2013-07-16 17:17:00,94.1,65.4,30.11,East,90,0.0,5.0,39,0.00,,,0.00,0,Wunderground v.1.15,2013-07-16 21:17:00,
2013-07-16 17:22:00,93.7,66.4,30.11,East,89,1.0,5.0,41,0.00,,,0.00,0,Wunderground v.1.15,2013-07-16 21:22:00,
2013-07-16 17:27:00,94.6,64.3,30.11,East,89,2.0,5.0,37,0.00,,,0.00,0,Wunderground v.1.15,2013-07-16 21:27:00,
2013-07-16 17:32:00,95.0,66.9,30.11,East,87,0.0,3.0,40,0.00,,,0.00,0,Wunderground v.1.15,2013-07-16 21:32:00,
2013-07-16 17:37:00,95.5,65.9,30.11,East,87,0.0,3.0,38,0.00,,,0.00,0,Wunderground v.1.15,2013-07-16 21:37:00,
2013-07-16 17:42:00,96.5,66.0,30.11,East,87,2.0,4.0,37,0.00,,,0.00,0,Wunderground v.1.15,2013-07-16 21:42:00,
2013-07-16 17:47:00,95.7,66.8,30.11,East,86,0.0,4.0,39,0.00,,,0.00,0,Wunderground v.1.15,2013-07-16 21:47:00,
2013-07-16 17:52:00,95.2,68.5,30.11,East,86,2.0,2.0,42,0.00,,,0.00,0,Wunderground v.1.15,2013-07-16 21:52:00,
2013-07-16 17:57:00,95.8,66.9,30.11,East,86,0.0,2.0,39,0.00,,,0.00,0,Wunderground v.1.15,2013-07-16 21:57:00,
2013-07-16 18:02:00,95.7,68.2,30.11,East,86,1.0,1.0,41,0.00,,,0.00,0,Wunderground v.1.15,2013-07-16 22:02:00,
2013-07-16 18:07:00,95.1,64.7,30.11,East,86,0.0,2.0,37,0.00,,,0.00,0,Wunderground v.1.15,2013-07-16 22:07:00,
2013-07-16 18:12:00,96.0,67.0,30.11,East,86,0.0,1.0,39,0.00,,,0.00,0,Wunderground v.1.15,2013-07-16 22:12:00,
2013-07-16 18:17:00,96.7,67.7,30.11,East,86,0.0,1.0,39,0.00,,,0.00,0,Wunderground v.1.15,2013-07-16 22:17:00,
2013-07-16 18:22:00,96.9,66.3,30.11,East,86,0.0,1.0,37,0.00,,,0.00,0,Wunderground v.1.15,2013-07-16 22:22:00,
2013-07-16 18:27:00,96.0,67.0,30.11,East,86,0.0,1.0,39,0.00,,,0.00,0,Wunderground v.1.15,2013-07-16 22:27:00,
2013-07-16 18:32:00,95.4,68.7,30.11,East,85,0.0,0.0,42,0.00,,,0.00,0,Wunderground v.1.15,2013-07-16 22:32:00,
2013-07-16 18:37:00,95.7,66.8,30.11,East,85,0.0,3.0,39,0.00,,,0.00,0,Wunderground v.1.15,2013-07-16 22:37:00,
2013-07-16 18:42:00,95.1,67.7,30.11,East,85,1.0,1.0,41,0.00,,,0.00,0,Wunderground v.1.15,2013-07-16 22:42:00,
2013-07-16 18:47:00,95.4,69.4,30.11,East,86,0.0,2.0,43,0.00,,,0.00,0,Wunderground v.1.15,2013-07-16 22:47:00,
2013-07-16 18:52:00,95.3,67.2,30.12,East,85,0.0,3.0,40,0.00,,,0.00,0,Wunderground v.1.15,2013-07-16 22:52:00,
2013-07-16 18:57:00,94.7,64.4,30.12,East,85,0.0,3.0,37,0.00,,,0.00,0,Wunderground v.1.15,2013-07-16 22:57:00,
2013-07-16 19:02:00,94.4,67.8,30.12,East,85,0.0,0.0,42,0.00,,,0.00,0,Wunderground v.1.15,2013-07-16 23:02:00,
2013-07-16 19:07:00,93.9,69.3,30.12,East,85,0.0,0.0,45,0.00,,,0.00,0,Wunderground v.1.15,2013-07-16 23:07:00,
2013-07-16 19:12:00,92.6,69.4,30.12,East,86,0.0,0.0,47,0.00,,,0.00,0,Wunderground v.1.15,2013-07-16 23:12:00,
2013-07-16 19:17:00,91.2,68.8,30.12,East,85,0.0,0.0,48,0.00,,,0.00,0,Wunderground v.1.15,2013-07-16 23:17:00,
2013-07-16 19:22:00,89.6,67.9,30.12,East,86,0.0,0.0,49,0.00,,,0.00,0,Wunderground v.1.15,2013-07-16 23:22:00,
2013-07-16 19:27:00,88.4,67.4,30.12,East,86,0.0,0.0,50,0.00,,,0.00,0,Wunderground v.1.15,2013-07-16 23:27:00,
2013-07-16 19:32:00,87.3,66.4,30.12,East,86,0.0,0.0,50,0.00,,,0.00,0,Wunderground v.1.15,2013-07-16 23:32:00,
2013-07-16 19:37:00,86.3,66.0,30.13,East,86,0.0,0.0,51,0.00,,,0.00,0,Wunderground v.1.15,2013-07-16 23:37:00,
2013-07-16 19:42:00,85.1,66.0,30.13,East,86,0.0,0.0,53,0.00,,,0.00,0,Wunderground v.1.15,2013-07-16 23:42:00,
2013-07-16 19:47:00,84.0,65.6,30.13,East,86,0.0,0.0,54,0.00,,,0.00,0,Wunderground v.1.15,2013-07-16 23:47:00,
2013-07-16 19:52:00,83.6,65.7,30.13,East,85,0.0,0.0,55,0.00,,,0.00,0,Wunderground v.1.15,2013-07-16 23:52:00,
2013-07-16 19:57:00,83.4,67.1,30.13,East,85,0.0,0.0,58,0.00,,,0.00,0,Wunderground v.1.15,2013-07-16 23:57:00,
2013-07-16 20:02:00,84.0,67.6,30.13,East,86,0.0,0.0,58,0.00,,,0.00,0,Wunderground v.1.15,2013-07-17 00:02:00,
2013-07-16 20:07:00,84.3,67.9,30.13,East,85,0.0,0.0,58,0.00,,,0.00,0,Wunderground v.1.15,2013-07-17 00:07:00,
2013-07-16 20:12:00,84.2,67.8,30.13,East,85,0.0,0.0,58,0.00,,,0.00,0,Wunderground v.1.15,2013-07-17 00:12:00,
2013-07-16 20:17:00,83.9,67.5,30.13,East,86,0.0,0.0,58,0.00,,,0.00,0,Wunderground v.1.15,2013-07-17 00:17:00,
2013-07-16 20:23:00,83.8,67.4,30.13,East,85,0.0,0.0,58,0.00,,,0.00,0,Wunderground v.1.15,2013-07-17 00:23:00,
2013-07-16 20:28:00,83.4,66.6,30.13,East,86,0.0,0.0,57,0.00,,,0.00,0,Wunderground v.1.15,2013-07-17 00:28:00,
2013-07-16 20:32:00,82.9,66.1,30.13,East,85,0.0,0.0,57,0.00,,,0.00,0,Wunderground v.1.15,2013-07-17 00:32:00,
2013-07-16 20:38:00,82.6,66.3,30.13,East,86,0.0,0.0,58,0.00,,,0.00,0,Wunderground v.1.15,2013-07-17 00:38:00,
2013-07-16 20:42:00,82.2,66.0,30.13,East,85,0.0,0.0,58,0.00,,,0.00,0,Wunderground v.1.15,2013-07-17 00:42:00,
2013-07-16 20:48:00,81.4,65.2,30.13,East,86,0.0,0.0,58,0.00,,,0.00,0,Wunderground v.1.15,2013-07-17 00:48:00,
2013-07-16 20:52:00,81.2,66.0,30.14,East,86,0.0,0.0,60,0.00,,,0.00,0,Wunderground v.1.15,2013-07-17 00:52:00,
2013-07-16 20:57:00,81.1,65.9,30.13,East,86,0.0,0.0,60,0.00,,,0.00,0,Wunderground v.1.15,2013-07-17 00:57:00,
2013-07-16 21:03:00,80.8,66.1,30.14,East,85,0.0,0.0,61,0.00,,,0.00,0,Wunderground v.1.15,2013-07-17 01:03:00,
2013-07-16 21:08:00,81.1,66.8,30.14,East,86,0.0,0.0,62,0.00,,,0.00,0,Wunderground v.1.15,2013-07-17 01:08:00,
2013-07-16 21:13:00,81.4,67.1,30.14,East,85,0.0,0.0,62,0.00,,,0.00,0,Wunderground v.1.15,2013-07-17 01:13:00,
2013-07-16 21:18:00,81.4,67.1,30.14,East,85,0.0,0.0,62,0.00,,,0.00,0,Wunderground v.1.15,2013-07-17 01:18:00,
2013-07-16 21:24:00,80.9,67.1,30.14,East,86,0.0,0.0,63,0.00,,,0.00,0,Wunderground v.1.15,2013-07-17 01:24:00,
2013-07-16 21:29:00,80.2,66.9,30.15,East,86,0.0,0.0,64,0.00,,,0.00,0,Wunderground v.1.15,2013-07-17 01:29:00,
2013-07-16 21:34:00,80.0,67.2,30.15,East,85,0.0,0.0,65,0.00,,,0.00,0,Wunderground v.1.15,2013-07-17 01:34:00,
2013-07-16 21:39:00,79.5,66.7,30.14,East,85,0.0,0.0,65,0.00,,,0.00,0,Wunderground v.1.15,2013-07-17 01:39:00,
2013-07-16 21:44:00,79.0,66.2,30.15,East,85,0.0,0.0,65,0.00,,,0.00,0,Wunderground v.1.15,2013-07-17 01:44:00,
2013-07-16 21:49:00,78.6,66.3,30.15,East,85,0.0,0.0,66,0.00,,,0.00,0,Wunderground v.1.15,2013-07-17 01:49:00,
2013-07-16 21:54:00,78.2,66.3,30.15,East,85,0.0,0.0,67,0.00,,,0.00,0,Wunderground v.1.15,2013-07-17 01:54:00,
2013-07-16 21:59:00,78.0,67.4,30.15,East,86,0.0,0.0,70,0.00,,,0.00,0,Wunderground v.1.15,2013-07-17 01:59:00,
2013-07-16 22:04:00,77.9,67.7,30.15,East,85,0.0,0.0,71,0.00,,,0.00,0,Wunderground v.1.15,2013-07-17 02:04:00,
2013-07-16 22:09:00,77.6,67.4,30.15,East,85,0.0,0.0,71,0.00,,,0.00,0,Wunderground v.1.15,2013-07-17 02:09:00,
2013-07-16 22:14:00,77.3,67.6,30.15,East,85,0.0,0.0,72,0.00,,,0.00,0,Wunderground v.1.15,2013-07-17 02:14:00,
2013-07-16 22:19:00,77.2,67.5,30.15,East,85,0.0,0.0,72,0.00,,,0.00,0,Wunderground v.1.15,2013-07-17 02:19:00,
2013-07-16 22:24:00,77.1,67.4,30.15,East,85,0.0,0.0,72,0.00,,,0.00,0,Wunderground v.1.15,2013-07-17 02:24:00,
2013-07-16 22:29:00,76.9,67.2,30.15,East,85,0.0,0.0,72,0.00,,,0.00,0,Wunderground v.1.15,2013-07-17 02:29:00,
2013-07-16 22:34:00,76.9,67.2,30.15,East,86,0.0,0.0,72,0.00,,,0.00,0,Wunderground v.1.15,2013-07-17 02:34:00,
2013-07-16 22:39:00,76.9,67.2,30.16,East,85,0.0,0.0,72,0.00,,,0.00,0,Wunderground v.1.15,2013-07-17 02:39:00,
2013-07-16 22:44:00,76.9,67.6,30.15,East,85,0.0,0.0,73,0.00,,,0.00,0,Wunderground v.1.15,2013-07-17 02:44:00,
2013-07-16 22:49:00,76.8,67.5,30.15,East,85,0.0,0.0,73,0.00,,,0.00,0,Wunderground v.1.15,2013-07-17 02:49:00,
2013-07-16 22:54:00,76.9,67.6,30.16,East,85,0.0,0.0,73,0.00,,,0.00,0,Wunderground v.1.15,2013-07-17 02:54:00,
2013-07-16 22:59:00,76.8,67.5,30.15,East,85,0.0,0.0,73,0.00,,,0.00,0,Wunderground v.1.15,2013-07-17 02:59:00,
2013-07-16 23:04:00,76.7,67.4,30.15,East,85,0.0,0.0,73,0.00,,,0.00,0,Wunderground v.1.15,2013-07-17 03:04:00,
2013-07-16 23:09:00,76.6,67.3,30.15,East,86,0.0,0.0,73,0.00,,,0.00,0,Wunderground v.1.15,2013-07-17 03:09:00,
2013-07-16 23:14:00,76.5,67.6,30.15,East,85,0.0,0.0,74,0.00,,,0.00,0,Wunderground v.1.15,2013-07-17 03:14:00,
2013-07-16 23:19:00,76.4,67.5,30.15,East,86,0.0,0.0,74,0.00,,,0.00,0,Wunderground v.1.15,2013-07-17 03:19:00,
2013-07-16 23:24:00,76.4,67.5,30.15,East,85,0.0,0.0,74,0.00,,,0.00,0,Wunderground v.1.15,2013-07-17 03:24:00,
2013-07-16 23:30:00,76.1,67.2,30.15,East,85,0.0,0.0,74,0.00,,,0.00,0,Wunderground v.1.15,2013-07-17 03:30:00,
2013-07-16 23:35:00,76.0,67.1,30.15,East,86,0.0,0.0,74,0.00,,,0.00,0,Wunderground v.1.15,2013-07-17 03:35:00,
2013-07-16 23:40:00,76.0,67.1,30.15,East,85,0.0,0.0,74,0.00,,,0.00,0,Wunderground v.1.15,2013-07-17 03:40:00,
2013-07-16 23:45:00,75.9,67.4,30.15,East,86,0.0,0.0,75,0.00,,,0.00,0,Wunderground v.1.15,2013-07-17 03:45:00,
2013-07-16 23:50:00,76.0,67.5,30.15,East,85,0.0,0.0,75,0.00,,,0.00,0,Wunderground v.1.15,2013-07-17 03:50:00,
2013-07-16 23:55:00,75.9,67.4,30.15,East,85,0.0,0.0,75,0.00,,,0.00,0,Wunderground v.1.15,2013-07-17 03:55:00,